Home   Weather   Kahramanmaraş   Past weeks
Flag for Turkey

Past Weather in Kahramanmaraş, Turkey — Yesterday and Last 2 Weeks

Now
64 °F

Clear.


Feels Like: 64 °F
Forecast: 92 / 58 °F
Wind: 6 mph from East

Location: Kahramanmaraş

Current Time: May 23, 2019 at 6:08:40 am

Latest Report: May 23, 2019 at 4:50 am


Visibility: 10 mi

Pressure: 29.98 "Hg (28.09 "Hg at 556m altitude)

Humidity: 78%

Dew Point: 57 °F

Location of KahramanmaraşLocation

Past Weather in Kahramanmaraş — Graph

°F

Kahramanmaraş Temperature Yesterday

Maximum temperature yesterday: 90 °F (at 4:50 pm)
Minimum temperature yesterday: 61 °F (at 5:50 am)
Average temperature yesterday: 76 °F

High & Low Weather Summary for the Past Weeks

 TemperatureHumidityPressure
High95 °F (May 16, 2:50 pm)94% (May 9, 2:50 am)30.04 "Hg (May 9, 2:50 am)
Low46 °F (May 9, 3:50 am)16% (May 17, 12:50 pm)29.65 "Hg (May 17, 5:50 pm)
Average71 °F51%29.92 "Hg
* Reported May 8 3:50 am — May 23 3:50 am, Kahramanmaraş. Weather by CustomWeather, © 2019

Note: Actual official high and low records may vary slightly from our data, if they occured in-between our weather recording intervals... More about our weather records

Advertising

Kahramanmaraş Weather History for the Previous 24 Hours

Scroll right to see more
 ConditionsComfort  
Time TempWeatherWind HumidityBarometerVisibility
3:50 am
Thu, May 23
64 °FClear.7 mph78%30.01 "Hg10 mi
2:50 am66 °FClear.8 mph73%30.01 "Hg10 mi
1:50 am68 °FClear.7 mph69%30.01 "Hg10 mi
12:50 am72 °FClear.5 mph65%30.01 "Hg10 mi
11:50 pm
Wed, May 22
75 °FClear.8 mph57%30.01 "Hg10 mi
10:50 pm77 °FClear.9 mph54%30.01 "Hg10 mi
9:50 pm79 °FPassing clouds.12 mph48%30.01 "HgN/A
8:50 pm81 °FPassing clouds.20 mph45%29.98 "HgN/A
7:50 pm81 °FPassing clouds.16 mph39%29.98 "HgN/A
6:50 pm82 °FScattered clouds.20 mph37%29.98 "HgN/A
5:50 pm86 °FScattered clouds.18 mph33%29.95 "HgN/A
4:50 pm90 °FScattered clouds.12 mph26%29.95 "HgN/A
3:50 pm88 °FScattered clouds.6 mph27%29.95 "HgN/A
2:50 pm88 °FScattered clouds.9 mph27%29.98 "HgN/A
1:50 pm88 °FScattered clouds.13 mph25%30.01 "HgN/A
12:50 pm88 °FScattered clouds.14 mph25%30.01 "HgN/A
11:50 am84 °FScattered clouds.12 mph29%30.01 "HgN/A
10:50 am79 °FScattered clouds.3 mph51%30.04 "HgN/A
9:50 am73 °FPartly sunny.3 mph57%30.04 "HgN/A
8:50 am70 °FBroken clouds.5 mph69%30.04 "HgN/A
7:50 am68 °FScattered clouds.5 mph73%30.04 "HgN/A
6:50 am66 °FScattered clouds.3 mph78%30.04 "HgN/A
Weather by CustomWeather, © 2019

See weather overview